| time (UTC) | temp C | wind direction | speed KPH | gust KPH | rain 1hr cm | rain 24hr cm | rain mn cm | humidity % | barometer mb |
| 20260505124533 | 21 | 360 | 8.0 | 19.3 | 0.00 | 0.00 | 0.00 | 48 | 1006.7 |
| 20260505123029 | 21 | 360 | 3.2 | 20.9 | 0.00 | 0.00 | 0.00 | 50 | 1006.9 |
| 20260505121534 | 22 | 360 | 4.8 | 19.3 | 0.00 | 0.00 | 0.00 | 49 | 1006.9 |
| 20260505120037 | 22 | 360 | 6.4 | 16.1 | 0.00 | 0.00 | 0.00 | 47 | 1007.1 |
| 20260505114523 | 22 | 360 | 8.0 | 19.3 | 0.00 | 0.00 | 0.00 | 45 | 1007.1 |
| 20260505113022 | 23 | 360 | 9.7 | 17.7 | 0.00 | 0.00 | 0.00 | 44 | 1007.1 |
| 20260505111521 | 23 | 360 | 8.0 | 17.7 | 0.00 | 0.00 | 0.00 | 43 | 1007.3 |
| 20260505101515 | 22 | 360 | 9.7 | 17.7 | 0.00 | 0.00 | 0.00 | 48 | 1007.7 |
| 20260505100014 | 22 | 360 | 8.0 | 14.5 | 0.00 | 0.00 | 0.00 | 48 | 1008.0 |
| 20260505094511 | 22 | 360 | 4.8 | 14.5 | 0.00 | 0.00 | 0.00 | 46 | 1008.2 |
| 20260505093008 | 21 | 360 | 4.8 | 12.9 | 0.00 | 0.00 | 0.00 | 47 | 1008.3 |
| 20260505091506 | 21 | 360 | 3.2 | 9.7 | 0.00 | 0.00 | 0.00 | 51 | 1008.4 |
| 20260505090005 | 20 | 360 | 3.2 | 12.9 | 0.00 | 0.00 | 0.00 | 52 | 1008.7 |
| 20260505084559 | 20 | 360 | 4.8 | 8.0 | 0.00 | 0.00 | 0.00 | 51 | 1008.6 |
| 20260505083100 | 19 | 360 | 4.8 | 8.0 | 0.00 | 0.00 | 0.00 | 54 | 1008.8 |
| 20260505081604 | 18 | 360 | 4.8 | 8.0 | 0.00 | 0.00 | 0.00 | 57 | 1008.9 |
| 20260505080053 | 18 | 360 | 1.6 | 9.7 | 0.00 | 0.00 | 0.00 | 56 | 1008.9 |
| 20260505074551 | 18 | 360 | 4.8 | 8.0 | 0.00 | 0.00 | 0.00 | 57 | 1009.0 |
| 20260505073054 | 17 | 360 | 0.0 | 4.8 | 0.00 | 0.00 | 0.00 | 57 | 1009.2 |
| 20260505071556 | 17 | 360 | 3.2 | 6.4 | 0.00 | 0.00 | 0.00 | 58 | 1009.3 |
| 20260505070041 | 16 | 360 | 1.6 | 6.4 | 0.00 | 0.00 | 0.00 | 63 | 1009.4 |
| 20260505064540 | 16 | 360 | 1.6 | 6.4 | 0.00 | 0.00 | 0.00 | 63 | 1009.6 |
| 20260505063034 | 15 | 360 | 3.2 | 8.0 | 0.00 | 0.00 | 0.00 | 65 | 1009.6 |
| 20260505061531 | 14 | 360 | 3.2 | 6.4 | 0.00 | 0.00 | 0.00 | 64 | 1009.7 |
| 20260505060041 | 13 | 360 | 3.2 | 6.4 | 0.00 | 0.00 | 0.00 | 67 | 1009.8 |
| 20260505054524 | 12 | 360 | 0.0 | 0.0 | 0.00 | 0.00 | 0.00 | 71 | 1009.7 |
| 20260505053021 | 10 | 360 | 0.0 | 0.0 | 0.00 | 0.00 | 0.00 | 78 | 1009.8 |
| 20260505051525 | 7 | 360 | 0.0 | 0.0 | 0.00 | 0.00 | 0.00 | 86 | 1009.6 |
| 20260505041520 | 5 | 360 | 0.0 | 0.0 | 0.00 | 0.00 | 0.00 | 84 | 1009.9 |
| 20260505040010 | 5 | 360 | 0.0 | 0.0 | 0.00 | 0.00 | 0.00 | 83 | 1009.8 |
| 20260505034506 | 6 | 360 | 0.0 | 0.0 | 0.00 | 0.00 | 0.00 | 82 | 1009.8 |
| 20260505033005 | 6 | 360 | 0.0 | 0.0 | 0.00 | 0.00 | 0.00 | 81 | 1009.8 |
| 20260505031505 | 6 | 360 | 0.0 | 0.0 | 0.00 | 0.00 | 0.00 | 82 | 1009.9 |
| 20260505030007 | 7 | 360 | 0.0 | 0.0 | 0.00 | 0.00 | 0.00 | 82 | 1009.9 |
| 20260505024509 | 7 | 360 | 0.0 | 0.0 | 0.00 | 0.00 | 0.00 | 83 | 1010.0 |
| 20260505023013 | 7 | 360 | 0.0 | 0.0 | 0.00 | 0.00 | 0.00 | 83 | 1010.1 |
| 20260505021503 | 6 | 360 | 0.0 | 0.0 | 0.00 | 0.00 | 0.00 | 84 | 1010.1 |
| 20260505020002 | 6 | 360 | 0.0 | 0.0 | 0.00 | 0.00 | 0.00 | 84 | 1010.2 |
| 20260505014502 | 6 | 360 | 0.0 | 0.0 | 0.00 | 0.00 | 0.00 | 84 | 1010.3 |
| 20260505013127 | 6 | 360 | 0.0 | 0.0 | 0.00 | 0.00 | 0.00 | 83 | 1010.4 |
| 20260505011620 | 6 | 360 | 0.0 | 0.0 | 0.00 | 0.00 | 0.00 | 83 | 1010.5 |
| 20260505010110 | 6 | 360 | 0.0 | 0.0 | 0.00 | 0.00 | 0.00 | 83 | 1010.6 |
| 20260505004556 | 6 | 360 | 0.0 | 0.0 | 0.00 | 0.00 | 0.00 | 82 | 1010.7 |
| 20260505003101 | 6 | 360 | 0.0 | 0.0 | 0.00 | 0.00 | 0.00 | 82 | 1010.9 |
| 20260505001554 | 6 | 360 | 0.0 | 0.0 | 0.00 | 0.00 | 0.00 | 81 | 1010.9 |
| 20260505000059 | 7 | 360 | 0.0 | 0.0 | 0.00 | 0.00 | 0.00 | 80 | 1011.2 |
| 20260504234550 | 7 | 360 | 0.0 | 0.0 | 0.00 | 0.00 | 0.00 | 80 | 1011.3 |
| 20260504233055 | 7 | 360 | 0.0 | 0.0 | 0.00 | 0.00 | 0.00 | 81 | 1011.4 |
| 20260504231547 | 7 | 360 | 0.0 | 0.0 | 0.00 | 0.00 | 0.00 | 80 | 1011.4 |
| 20260504230045 | 7 | 360 | 0.0 | 0.0 | 0.00 | 0.00 | 0.00 | 80 | 1011.4 |
| 20260504224543 | 7 | 360 | 0.0 | 0.0 | 0.00 | 0.00 | 0.00 | 80 | 1011.7 |
| 20260504223047 | 7 | 360 | 0.0 | 0.0 | 0.00 | 0.00 | 0.00 | 79 | 1011.7 |
| 20260504221538 | 8 | 360 | 0.0 | 0.0 | 0.00 | 0.00 | 0.00 | 77 | 1011.9 |
| 20260504220041 | 8 | 360 | 0.0 | 0.0 | 0.00 | 0.00 | 0.00 | 77 | 1011.9 |
| 20260504214542 | 9 | 360 | 0.0 | 0.0 | 0.00 | 0.00 | 0.00 | 76 | 1011.9 |
| 20260504213040 | 10 | 360 | 0.0 | 0.0 | 0.00 | 0.00 | 0.00 | 75 | 1011.8 |
| 20260504211537 | 10 | 360 | 0.0 | 0.0 | 0.00 | 0.00 | 0.00 | 74 | 1011.7 |
| 20260504210034 | 10 | 360 | 0.0 | 0.0 | 0.00 | 0.00 | 0.00 | 73 | 1011.8 |
| 20260504204534 | 11 | 360 | 0.0 | 0.0 | 0.00 | 0.00 | 0.00 | 72 | 1011.7 |
| 20260504203036 | 12 | 360 | 0.0 | 0.0 | 0.00 | 0.00 | 0.00 | 70 | 1011.7 |
| 20260504201533 | 12 | 360 | 0.0 | 0.0 | 0.00 | 0.00 | 0.00 | 66 | 1011.7 |
| 20260504200033 | 14 | 360 | 0.0 | 0.0 | 0.00 | 0.00 | 0.00 | 60 | 1011.7 |
| 20260504194533 | 16 | 360 | 0.0 | 0.0 | 0.00 | 0.00 | 0.00 | 53 | 1011.6 |
| 20260504193032 | 16 | 360 | 0.0 | 4.8 | 0.00 | 0.00 | 0.00 | 52 | 1011.7 |
| 20260504191534 | 17 | 360 | 3.2 | 9.7 | 0.00 | 0.00 | 0.00 | 49 | 1011.9 |
| 20260504190032 | 17 | 360 | 3.2 | 8.0 | 0.00 | 0.00 | 0.00 | 50 | 1012.0 |
| 20260504184535 | 16 | 360 | 3.2 | 8.0 | 0.00 | 0.00 | 0.00 | 54 | 1011.8 |
| 20260504183032 | 17 | 360 | 0.0 | 4.8 | 0.00 | 0.00 | 0.00 | 51 | 1011.8 |
| 20260504181536 | 19 | 360 | 0.0 | 6.4 | 0.00 | 0.00 | 0.00 | 48 | 1011.5 |
| 20260504180031 | 19 | 360 | 3.2 | 4.8 | 0.00 | 0.00 | 0.00 | 46 | 1011.5 |
| 20260504174530 | 20 | 360 | 1.6 | 8.0 | 0.00 | 0.00 | 0.00 | 44 | 1011.5 |
| 20260504173032 | 21 | 360 | 3.2 | 8.0 | 0.00 | 0.00 | 0.00 | 43 | 1011.4 |
| 20260504171533 | 21 | 360 | 3.2 | 19.3 | 0.00 | 0.00 | 0.00 | 43 | 1011.5 |